Back to catalog

STARLINK-35085

AliveCommunicationsVLEO
NORAD 65419·PAYLOAD·🇺🇸 United States

Launched Aug 31, 2025 from Cape Canaveral Space Force Station

Loading…

Next Passes (next 24 hours)

TLE

FreshSource: CelesTrak SupGP

Epoch: Sep 14, 2026, 21:12 UTC

1 65419C 25192R   26257.88381944  .00042618  00000+0  13714-2 0  2576
2 65419  53.1576  71.5841 0001126  87.4383  95.6691 15.31659783    18

Track STARLINK-35085 in real time with AllMySat

Download on the App Store